BAW778 EGLL-ESSA

Flight info

Callsign BAW778
Flight time 2h 4m
Altitude 37000
Route BPK Q295 SOMVA DCT MAVAS DCT ANDIK N873 JUIST DCT DOSUR DCT MIKNA N851 PELUP Z226 NILUG
Aircraft A321/M-SDE3FGHIRWY/LB1

Departure

Time 2026-05-04 20:37
Airport London Heathrow Airport (EGLL)

Arrival

Time 2026-05-04 22:41
Airport Stockholm-Arlanda Airport (ESSA)
Time Latitude Longitude Altitude Speed Heading
2026-05-04 19:58 51.46993 -0.48606 85 ft 0 kts 269°
2026-05-04 20:11 51.46993 -0.48605 85 ft 0 kts 269°
2026-05-04 20:25 51.46993 -0.48596 85 ft 4 kts 269°
2026-05-04 20:26 51.46994 -0.48552 85 ft 4 kts 270°
2026-05-04 20:26 51.46992 -0.48509 85 ft 4 kts 282°
2026-05-04 20:26 51.46983 -0.48476 85 ft 4 kts 340°
2026-05-04 20:26 51.46978 -0.48473 89 ft 0 kts 360°
2026-05-04 20:31 51.46988 -0.48473 85 ft 4 kts 360°
2026-05-04 20:32 51.47036 -0.48459 88 ft 9 kts 37°
2026-05-04 20:32 51.47032 -0.48368 87 ft 10 kts 141°
2026-05-04 20:32 51.46963 -0.48355 87 ft 11 kts 181°
2026-05-04 20:32 51.46888 -0.48356 87 ft 9 kts 180°
2026-05-04 20:33 51.46833 -0.48357 90 ft 4 kts 180°
2026-05-04 20:33 51.46827 -0.48357 85 ft 2 kts 180°
2026-05-04 20:33 51.46810 -0.48357 85 ft 4 kts 180°
2026-05-04 20:33 51.46776 -0.48360 85 ft 5 kts 193°
2026-05-04 20:34 51.46746 -0.48404 85 ft 7 kts 240°
2026-05-04 20:34 51.46739 -0.48487 89 ft 8 kts 269°
2026-05-04 20:34 51.46739 -0.48591 87 ft 10 kts 269°
2026-05-04 20:34 51.46735 -0.48711 87 ft 11 kts 257°
2026-05-04 20:35 51.46671 -0.48753 89 ft 10 kts 180°
2026-05-04 20:35 51.46610 -0.48763 89 ft 6 kts 196°
2026-05-04 20:35 51.46585 -0.48776 87 ft 6 kts 198°
2026-05-04 20:35 51.46530 -0.48786 87 ft 9 kts 172°
2026-05-04 20:36 51.46488 -0.48735 90 ft 8 kts 117°
2026-05-04 20:36 51.46478 -0.48634 88 ft 11 kts 90°
2026-05-04 20:36 51.46479 -0.48410 87 ft 47 kts 90°
2026-05-04 20:36 51.46482 -0.47472 81 ft 119 kts 90°
2026-05-04 20:37 51.46488 -0.45832 90 ft 173 kts 89°
2026-05-04 20:37 51.46493 -0.43817 609 ft 183 kts 88°
2026-05-04 20:37 51.46549 -0.41754 1279 ft 188 kts 78°
2026-05-04 20:37 51.47079 -0.39816 1686 ft 198 kts 52°
2026-05-04 20:38 51.48016 -0.38052 1865 ft 218 kts 48°
2026-05-04 20:38 51.49058 -0.36090 2084 ft 243 kts 49°
2026-05-04 20:38 51.50173 -0.33968 2746 ft 251 kts 49°
2026-05-04 20:38 51.51299 -0.31805 3533 ft 254 kts 50°
2026-05-04 20:39 51.52349 -0.29506 4293 ft 258 kts 62°
2026-05-04 20:39 51.52992 -0.26787 5002 ft 263 kts 70°
2026-05-04 20:39 51.53618 -0.24005 5707 ft 268 kts 63°
2026-05-04 20:39 51.54674 -0.21577 5965 ft 270 kts 43°
2026-05-04 20:40 51.56233 -0.19929 6021 ft 270 kts 22°
2026-05-04 20:40 51.57967 -0.18781 6022 ft 269 kts 22°
2026-05-04 20:40 51.59724 -0.17730 6025 ft 269 kts 16°
2026-05-04 20:40 51.61525 -0.16893 6023 ft 270 kts 15°
2026-05-04 20:41 51.63332 -0.16054 6025 ft 269 kts 16°
2026-05-04 20:41 51.65134 -0.15219 6025 ft 269 kts 15°
2026-05-04 20:41 51.66934 -0.14384 6025 ft 269 kts 16°
2026-05-04 20:41 51.68735 -0.13549 6024 ft 269 kts 16°
2026-05-04 20:42 51.70537 -0.12717 6027 ft 269 kts 15°
2026-05-04 20:42 51.72331 -0.11810 6030 ft 270 kts 24°
2026-05-04 20:42 51.73888 -0.10139 6033 ft 270 kts 44°
2026-05-04 20:42 51.74978 -0.07680 6200 ft 276 kts 66°
2026-05-04 20:43 51.75468 -0.04693 6992 ft 277 kts 82°
2026-05-04 20:43 51.75724 -0.01642 7732 ft 279 kts 82°
2026-05-04 20:43 51.75986 0.01489 8423 ft 284 kts 81°
2026-05-04 20:43 51.76252 0.04669 9071 ft 289 kts 81°
2026-05-04 20:44 51.76524 0.07916 9701 ft 294 kts 82°
2026-05-04 20:44 51.76797 0.11215 10283 ft 302 kts 82°
2026-05-04 20:44 51.77085 0.14704 10436 ft 325 kts 82°
2026-05-04 20:44 51.77392 0.18444 10578 ft 346 kts 82°
2026-05-04 20:45 51.77712 0.22350 11021 ft 354 kts 82°
2026-05-04 20:45 51.78032 0.26316 11616 ft 358 kts 82°
2026-05-04 20:45 51.78356 0.30317 12250 ft 360 kts 82°
2026-05-04 20:45 51.78682 0.34348 12873 ft 363 kts 83°
2026-05-04 20:46 51.79008 0.38410 13469 ft 366 kts 83°
2026-05-04 20:46 51.79335 0.42502 14058 ft 369 kts 83°
2026-05-04 20:46 51.79662 0.46625 14645 ft 372 kts 83°
2026-05-04 20:46 51.79988 0.50788 15202 ft 375 kts 83°
2026-05-04 20:47 51.80314 0.54979 15767 ft 377 kts 83°
2026-05-04 20:47 51.80641 0.59195 16306 ft 380 kts 83°
2026-05-04 20:47 51.80997 0.63420 16835 ft 383 kts 80°
2026-05-04 20:47 51.81730 0.67582 17354 ft 386 kts 69°
2026-05-04 20:48 51.82781 0.71602 17869 ft 389 kts 68°
2026-05-04 20:48 51.83837 0.75637 18366 ft 392 kts 68°
2026-05-04 20:48 51.84894 0.79717 18830 ft 395 kts 68°
2026-05-04 20:48 51.85943 0.83775 19261 ft 398 kts 68°
2026-05-04 20:49 51.87014 0.87921 19690 ft 401 kts 68°
2026-05-04 20:49 51.88070 0.92016 20104 ft 404 kts 68°
2026-05-04 20:49 51.89177 0.96339 20540 ft 408 kts 68°
2026-05-04 20:49 51.90264 1.00590 20946 ft 411 kts 68°
2026-05-04 20:50 51.91363 1.04885 21337 ft 414 kts 68°
2026-05-04 20:50 51.92469 1.09203 21722 ft 417 kts 68°
2026-05-04 20:50 51.93582 1.13557 22099 ft 420 kts 68°
2026-05-04 20:50 51.94701 1.17953 22471 ft 423 kts 68°
2026-05-04 20:51 51.95823 1.22376 22848 ft 426 kts 68°
2026-05-04 20:51 51.96952 1.26829 23197 ft 429 kts 68°
2026-05-04 20:51 51.98091 1.31320 23555 ft 432 kts 68°
2026-05-04 20:51 51.99236 1.35849 23899 ft 435 kts 68°
2026-05-04 20:52 52.00380 1.40406 24237 ft 438 kts 68°
2026-05-04 20:52 52.01529 1.44992 24587 ft 440 kts 68°
2026-05-04 20:52 52.02688 1.49607 24929 ft 443 kts 68°
2026-05-04 20:52 52.03851 1.54244 25270 ft 445 kts 68°
2026-05-04 20:53 52.05021 1.58927 25605 ft 447 kts 69°
2026-05-04 20:53 52.06179 1.63569 25929 ft 450 kts 69°
2026-05-04 20:53 52.07359 1.68300 26237 ft 452 kts 69°
2026-05-04 20:53 52.08540 1.73048 26553 ft 454 kts 69°
2026-05-04 20:54 52.09724 1.77815 26875 ft 456 kts 69°
2026-05-04 20:54 52.10911 1.82624 27174 ft 459 kts 69°
2026-05-04 20:54 52.12103 1.87458 27488 ft 461 kts 70°
2026-05-04 20:54 52.13297 1.92316 27792 ft 463 kts 70°
2026-05-04 20:55 52.14495 1.97199 28089 ft 465 kts 70°
2026-05-04 20:55 52.15697 2.02111 28381 ft 468 kts 70°
2026-05-04 20:55 52.16900 2.07043 28662 ft 470 kts 70°
2026-05-04 20:55 52.18109 2.12006 28934 ft 471 kts 70°
2026-05-04 20:56 52.19319 2.16975 29199 ft 473 kts 70°
2026-05-04 20:56 52.20535 2.21973 29457 ft 475 kts 71°
2026-05-04 20:56 52.21755 2.27008 29706 ft 477 kts 71°
2026-05-04 20:56 52.22970 2.32046 29942 ft 478 kts 71°
2026-05-04 20:57 52.24191 2.37105 30175 ft 480 kts 71°
2026-05-04 20:57 52.25414 2.42172 30436 ft 480 kts 71°
2026-05-04 20:57 52.26617 2.47174 30735 ft 479 kts 71°
2026-05-04 20:57 52.27832 2.52226 31035 ft 478 kts 71°
2026-05-04 20:58 52.29040 2.57285 31330 ft 477 kts 71°
2026-05-04 20:58 52.30241 2.62335 31614 ft 477 kts 71°
2026-05-04 20:58 52.31279 2.67461 31891 ft 474 kts 76°
2026-05-04 20:58 52.32190 2.72638 32159 ft 474 kts 76°
2026-05-04 20:59 52.33102 2.77822 32420 ft 474 kts 76°
2026-05-04 20:59 52.34013 2.83004 32689 ft 473 kts 76°
2026-05-04 20:59 52.34919 2.88166 32957 ft 472 kts 76°
2026-05-04 20:59 52.35825 2.93334 33207 ft 472 kts 76°
2026-05-04 21:00 52.36726 2.98493 33436 ft 472 kts 76°
2026-05-04 21:00 52.37624 3.03646 33668 ft 472 kts 76°
2026-05-04 21:00 52.38522 3.08834 33903 ft 472 kts 76°
2026-05-04 21:00 52.39414 3.14004 34138 ft 472 kts 76°
2026-05-04 21:01 52.40303 3.19175 34351 ft 472 kts 76°
2026-05-04 21:01 52.41180 3.24295 34553 ft 472 kts 76°
2026-05-04 21:01 52.42067 3.29484 34757 ft 472 kts 77°
2026-05-04 21:01 52.42953 3.34683 34963 ft 473 kts 77°
2026-05-04 21:02 52.43835 3.39873 35173 ft 473 kts 77°
2026-05-04 21:02 52.44719 3.45071 35365 ft 473 kts 76°
2026-05-04 21:02 52.45600 3.50267 35567 ft 473 kts 77°
2026-05-04 21:02 52.46466 3.55397 35759 ft 473 kts 77°
2026-05-04 21:03 52.47341 3.60603 35963 ft 473 kts 77°
2026-05-04 21:03 52.48211 3.65806 36156 ft 473 kts 77°
2026-05-04 21:03 52.49079 3.71019 36337 ft 473 kts 77°
2026-05-04 21:03 52.49948 3.76231 36504 ft 473 kts 77°
2026-05-04 21:04 52.50814 3.81445 36660 ft 474 kts 77°
2026-05-04 21:04 52.51677 3.86656 36877 ft 473 kts 77°
2026-05-04 21:04 52.52537 3.91854 37018 ft 471 kts 77°
2026-05-04 21:04 52.53103 3.95288 37044 ft 469 kts 77°
2026-05-04 21:05 52.54790 4.05586 37045 ft 466 kts 77°
2026-05-04 21:05 52.56470 4.15887 37040 ft 466 kts 77°
2026-05-04 21:06 52.58136 4.26158 37026 ft 467 kts 77°
2026-05-04 21:06 52.59804 4.36481 37026 ft 467 kts 77°
2026-05-04 21:07 52.61457 4.46797 37038 ft 467 kts 77°
2026-05-04 21:07 52.63101 4.57152 37045 ft 467 kts 77°
2026-05-04 21:08 52.64727 4.67439 37046 ft 467 kts 77°
2026-05-04 21:08 52.66345 4.77742 37054 ft 467 kts 77°
2026-05-04 21:09 52.67959 4.88112 37053 ft 467 kts 77°
2026-05-04 21:09 52.69569 4.98487 37055 ft 467 kts 77°
2026-05-04 21:10 52.71178 5.08896 37053 ft 468 kts 77°
2026-05-04 21:10 52.72775 5.19308 37054 ft 468 kts 77°
2026-05-04 21:11 52.75201 5.29197 37054 ft 471 kts 59°
2026-05-04 21:11 52.79100 5.37878 37056 ft 471 kts 52°
2026-05-04 21:12 52.83140 5.46437 37055 ft 472 kts 52°
2026-05-04 21:12 52.87160 5.55034 37060 ft 473 kts 52°
2026-05-04 21:13 52.91185 5.63653 37065 ft 473 kts 52°
2026-05-04 21:13 52.95188 5.72249 37067 ft 473 kts 52°
2026-05-04 21:14 52.99205 5.80885 37070 ft 473 kts 52°
2026-05-04 21:14 53.03214 5.89543 37074 ft 472 kts 52°
2026-05-04 21:15 53.07211 5.98202 37076 ft 472 kts 52°
2026-05-04 21:15 53.11197 6.06894 37069 ft 472 kts 52°
2026-05-04 21:16 53.15194 6.15616 37066 ft 473 kts 52°
2026-05-04 21:16 53.19183 6.24353 37061 ft 473 kts 52°
2026-05-04 21:17 53.23137 6.33044 37059 ft 474 kts 52°
2026-05-04 21:17 53.27120 6.41821 37056 ft 473 kts 52°
2026-05-04 21:18 53.31094 6.50607 37054 ft 473 kts 52°
2026-05-04 21:18 53.35151 6.59266 37059 ft 472 kts 45°
2026-05-04 21:19 53.39912 6.66724 37053 ft 471 kts 41°
2026-05-04 21:19 53.44747 6.74142 37056 ft 471 kts 41°
2026-05-04 21:20 53.49579 6.81610 37054 ft 471 kts 41°
2026-05-04 21:20 53.54405 6.89107 37052 ft 472 kts 41°
2026-05-04 21:21 53.59200 6.96699 37057 ft 473 kts 43°
2026-05-04 21:21 53.63852 7.04543 37058 ft 473 kts 44°
2026-05-04 21:22 53.68427 7.12414 37054 ft 473 kts 44°
2026-05-04 21:22 53.73062 7.20311 37051 ft 473 kts 44°
2026-05-04 21:23 53.77710 7.28172 37052 ft 473 kts 44°
2026-05-04 21:23 53.82369 7.36045 37053 ft 473 kts 44°
2026-05-04 21:24 53.87006 7.43947 37046 ft 473 kts 44°
2026-05-04 21:24 53.91600 7.51840 37040 ft 473 kts 44°
2026-05-04 21:25 53.96247 7.59852 37044 ft 473 kts 44°
2026-05-04 21:25 54.00837 7.67783 37048 ft 473 kts 44°
2026-05-04 21:26 54.05452 7.75751 37044 ft 473 kts 44°
2026-05-04 21:26 54.10067 7.83742 37044 ft 473 kts 44°
2026-05-04 21:27 54.14676 7.91777 37044 ft 473 kts 44°
2026-05-04 21:27 54.19275 7.99824 37046 ft 473 kts 44°
2026-05-04 21:28 54.23866 8.07888 37047 ft 473 kts 44°
2026-05-04 21:28 54.28430 8.15907 37048 ft 473 kts 44°
2026-05-04 21:29 54.33026 8.24006 37049 ft 474 kts 44°
2026-05-04 21:29 54.37615 8.32144 37049 ft 474 kts 44°
2026-05-04 21:30 54.42191 8.40303 37053 ft 474 kts 44°
2026-05-04 21:30 54.46760 8.48465 37052 ft 474 kts 44°
2026-05-04 21:31 54.53609 8.60720 37055 ft 473 kts 44°
2026-05-04 21:32 54.58138 8.68872 37051 ft 473 kts 44°
2026-05-04 21:32 54.62692 8.77120 37050 ft 473 kts 44°
2026-05-04 21:33 54.67231 8.85344 37045 ft 473 kts 44°
2026-05-04 21:33 54.71770 8.93585 37038 ft 473 kts 44°
2026-05-04 21:34 54.76267 9.01786 37037 ft 472 kts 44°
2026-05-04 21:34 54.80782 9.10055 37031 ft 472 kts 44°
2026-05-04 21:35 54.85281 9.18340 37033 ft 472 kts 45°
2026-05-04 21:35 54.89722 9.26735 37028 ft 472 kts 46°
2026-05-04 21:36 54.94105 9.35255 37025 ft 472 kts 46°
2026-05-04 21:36 54.98471 9.43796 37031 ft 473 kts 46°
2026-05-04 21:37 55.02851 9.52353 37031 ft 473 kts 46°
2026-05-04 21:37 55.07230 9.60893 37041 ft 472 kts 46°
2026-05-04 21:38 55.11608 9.69466 37045 ft 472 kts 46°
2026-05-04 21:38 55.15966 9.78049 37043 ft 472 kts 46°
2026-05-04 21:39 55.20318 9.86649 37043 ft 471 kts 46°
2026-05-04 21:39 55.24662 9.95262 37039 ft 472 kts 46°
2026-05-04 21:40 55.28992 10.03903 37035 ft 471 kts 46°
2026-05-04 21:40 55.33288 10.12499 37031 ft 471 kts 46°
2026-05-04 21:41 55.37619 10.21164 37033 ft 471 kts 46°
2026-05-04 21:41 55.41931 10.29826 37026 ft 471 kts 46°
2026-05-04 21:42 55.46237 10.38519 37023 ft 471 kts 46°
2026-05-04 21:42 55.50543 10.47242 37021 ft 471 kts 47°
2026-05-04 21:43 55.54834 10.55982 37023 ft 471 kts 47°
2026-05-04 21:43 55.59128 10.64751 37023 ft 471 kts 47°
2026-05-04 21:44 55.63379 10.73468 37020 ft 471 kts 47°
2026-05-04 21:44 55.67668 10.82270 37017 ft 471 kts 47°
2026-05-04 21:45 55.71944 10.91078 37015 ft 471 kts 47°
2026-05-04 21:45 55.76209 10.99924 37012 ft 471 kts 47°
2026-05-04 21:46 55.80469 11.08801 37007 ft 471 kts 47°
2026-05-04 21:46 55.84698 11.17633 37006 ft 471 kts 47°
2026-05-04 21:47 55.88955 11.26527 37003 ft 471 kts 47°
2026-05-04 21:47 55.93192 11.35433 37001 ft 471 kts 47°
2026-05-04 21:48 55.97423 11.44368 37004 ft 471 kts 47°
2026-05-04 21:48 56.01653 11.53328 36998 ft 471 kts 47°
2026-05-04 21:49 56.05879 11.62284 36992 ft 471 kts 47°
2026-05-04 21:49 56.10098 11.71291 36993 ft 472 kts 47°
2026-05-04 21:50 56.14285 11.80269 36994 ft 472 kts 47°
2026-05-04 21:50 56.18489 11.89308 36994 ft 472 kts 47°
2026-05-04 21:51 56.22691 11.98365 36991 ft 472 kts 48°
2026-05-04 21:51 56.26882 12.07442 36987 ft 471 kts 48°
2026-05-04 21:52 56.31062 12.16547 36984 ft 472 kts 48°
2026-05-04 21:52 56.35247 12.25682 36977 ft 472 kts 48°
2026-05-04 21:53 56.38720 12.33282 36974 ft 472 kts 48°
2026-05-04 21:53 56.42892 12.42444 36971 ft 472 kts 48°
2026-05-04 21:54 56.47065 12.51647 36965 ft 473 kts 48°
2026-05-04 21:54 56.51227 12.60871 36963 ft 473 kts 48°
2026-05-04 21:55 56.55389 12.70142 36961 ft 474 kts 48°
2026-05-04 21:55 56.59550 12.79425 36960 ft 475 kts 48°
2026-05-04 21:56 56.63690 12.88682 36960 ft 475 kts 49°
2026-05-04 21:56 56.67846 12.98026 36959 ft 476 kts 49°
2026-05-04 21:57 56.72001 13.07411 36960 ft 476 kts 49°
2026-05-04 21:57 56.76150 13.16814 36961 ft 476 kts 49°
2026-05-04 21:58 56.80301 13.26262 36956 ft 476 kts 49°
2026-05-04 21:58 56.84447 13.35733 36954 ft 478 kts 49°
2026-05-04 21:59 56.88595 13.45244 36950 ft 478 kts 49°
2026-05-04 21:59 56.92701 13.54705 36946 ft 478 kts 49°
2026-05-04 22:00 56.96831 13.64242 36940 ft 478 kts 49°
2026-05-04 22:00 57.00966 13.73825 36933 ft 478 kts 49°
2026-05-04 22:01 57.05087 13.83431 36915 ft 479 kts 49°
2026-05-04 22:01 57.09204 13.93075 36918 ft 479 kts 49°
2026-05-04 22:02 57.13316 14.02745 36916 ft 480 kts 49°
2026-05-04 22:02 57.17426 14.12435 36909 ft 480 kts 49°
2026-05-04 22:03 57.21532 14.22162 36903 ft 481 kts 49°
2026-05-04 22:03 57.25631 14.31914 36913 ft 481 kts 49°
2026-05-04 22:04 57.29706 14.41636 36914 ft 481 kts 49°
2026-05-04 22:04 57.33802 14.51453 36913 ft 482 kts 49°
2026-05-04 22:05 57.37895 14.61297 36909 ft 482 kts 49°
2026-05-04 22:05 57.41981 14.71167 36903 ft 482 kts 50°
2026-05-04 22:06 57.46060 14.81076 36907 ft 483 kts 50°
2026-05-04 22:06 57.50133 14.91004 36895 ft 483 kts 50°
2026-05-04 22:07 57.54169 15.00882 36890 ft 483 kts 50°
2026-05-04 22:07 57.58232 15.10857 36897 ft 483 kts 50°
2026-05-04 22:08 57.62283 15.20841 36886 ft 483 kts 50°
2026-05-04 22:08 57.66318 15.30866 36883 ft 483 kts 50°
2026-05-04 22:09 57.70354 15.40897 36875 ft 483 kts 50°
2026-05-04 22:09 57.74378 15.50963 36865 ft 483 kts 50°
2026-05-04 22:10 57.78396 15.61057 36858 ft 484 kts 50°
2026-05-04 22:10 57.82420 15.71191 36853 ft 484 kts 50°
2026-05-04 22:11 57.86415 15.81271 36847 ft 484 kts 50°
2026-05-04 22:11 57.90536 15.91256 36843 ft 481 kts 43°
2026-05-04 22:12 57.95563 15.99370 36835 ft 476 kts 33°
2026-05-04 22:12 58.00772 16.07067 36833 ft 476 kts 34°
2026-05-04 22:13 58.05976 16.14821 36610 ft 476 kts 34°
2026-05-04 22:13 58.08560 16.18693 36360 ft 475 kts 33°
2026-05-04 22:13 58.11156 16.22578 36001 ft 474 kts 33°
2026-05-04 22:13 58.13747 16.26456 35271 ft 476 kts 33°
2026-05-04 22:14 58.16359 16.30365 34426 ft 481 kts 33°
2026-05-04 22:14 58.18989 16.34313 33589 ft 484 kts 33°
2026-05-04 22:14 58.21639 16.38307 32634 ft 489 kts 33°
2026-05-04 22:14 58.24314 16.42352 31716 ft 493 kts 33°
2026-05-04 22:15 58.26937 16.46556 31147 ft 492 kts 39°
2026-05-04 22:15 58.29261 16.51330 30651 ft 491 kts 47°
2026-05-04 22:15 58.31284 16.56432 30113 ft 489 kts 50°
2026-05-04 22:15 58.33302 16.61602 29557 ft 484 kts 49°
2026-05-04 22:16 58.35300 16.66728 29020 ft 480 kts 49°
2026-05-04 22:16 58.37280 16.71813 28483 ft 475 kts 50°
2026-05-04 22:16 58.39240 16.76853 27956 ft 471 kts 49°
2026-05-04 22:16 58.41181 16.81846 27435 ft 466 kts 49°
2026-05-04 22:17 58.43101 16.86801 26909 ft 462 kts 49°
2026-05-04 22:17 58.45002 16.91722 26388 ft 458 kts 49°
2026-05-04 22:17 58.46882 16.96599 25881 ft 455 kts 49°
2026-05-04 22:17 58.48745 17.01442 25387 ft 450 kts 49°
2026-05-04 22:18 58.50592 17.06247 24903 ft 446 kts 49°
2026-05-04 22:18 58.52422 17.11020 24431 ft 442 kts 49°
2026-05-04 22:18 58.54228 17.15747 23973 ft 438 kts 49°
2026-05-04 22:18 58.56010 17.20418 23523 ft 433 kts 49°
2026-05-04 22:19 58.57777 17.25057 23098 ft 428 kts 49°
2026-05-04 22:19 58.59519 17.29640 22674 ft 423 kts 49°
2026-05-04 22:19 58.61222 17.34126 22255 ft 418 kts 49°
2026-05-04 22:19 58.62921 17.38608 21830 ft 413 kts 49°
2026-05-04 22:20 58.64594 17.43040 21408 ft 408 kts 49°
2026-05-04 22:20 58.66254 17.47443 20986 ft 405 kts 49°
2026-05-04 22:20 58.67901 17.51811 20580 ft 403 kts 49°
2026-05-04 22:20 58.69540 17.56163 20107 ft 400 kts 50°
2026-05-04 22:21 58.71163 17.60483 19693 ft 397 kts 50°
2026-05-04 22:21 58.72773 17.64780 19257 ft 395 kts 50°
2026-05-04 22:21 58.74368 17.69051 18803 ft 391 kts 50°
2026-05-04 22:21 58.75948 17.73294 18352 ft 388 kts 50°
2026-05-04 22:22 58.77516 17.77513 17903 ft 386 kts 50°
2026-05-04 22:22 58.79071 17.81704 17459 ft 383 kts 50°
2026-05-04 22:22 58.80756 17.85607 17004 ft 376 kts 40°
2026-05-04 22:22 58.82694 17.88891 16591 ft 367 kts 30°
2026-05-04 22:23 58.84869 17.91547 16325 ft 375 kts 21°
2026-05-04 22:23 58.87223 17.93758 16020 ft 378 kts 19°
2026-05-04 22:23 58.89589 17.95970 15723 ft 378 kts 19°
2026-05-04 22:23 58.91921 17.98179 15420 ft 377 kts 19°
2026-05-04 22:24 58.94270 18.00417 15109 ft 376 kts 20°
2026-05-04 22:24 58.96614 18.02649 14812 ft 374 kts 20°
2026-05-04 22:24 58.98950 18.04869 14504 ft 373 kts 20°
2026-05-04 22:24 59.01277 18.07086 14214 ft 372 kts 20°
2026-05-04 22:25 59.03598 18.09298 13919 ft 371 kts 20°
2026-05-04 22:25 59.05907 18.11501 13621 ft 370 kts 20°
2026-05-04 22:25 59.08223 18.13641 13317 ft 365 kts 15°
2026-05-04 22:25 59.10617 18.15051 13024 ft 355 kts
2026-05-04 22:26 59.13045 18.15587 12740 ft 348 kts 356°
2026-05-04 22:26 59.15462 18.15855 12470 ft 347 kts 356°
2026-05-04 22:26 59.17845 18.16132 12192 ft 347 kts 356°
2026-05-04 22:26 59.20250 18.16412 11917 ft 346 kts 356°
2026-05-04 22:27 59.22642 18.16696 11642 ft 344 kts 356°
2026-05-04 22:27 59.25030 18.16981 11367 ft 342 kts 357°
2026-05-04 22:27 59.27399 18.17266 11091 ft 340 kts 357°
2026-05-04 22:27 59.29761 18.17547 10818 ft 339 kts 357°
2026-05-04 22:28 59.32115 18.17828 10547 ft 338 kts 357°
2026-05-04 22:28 59.34457 18.18108 10277 ft 336 kts 358°
2026-05-04 22:28 59.36766 18.18390 10051 ft 326 kts 358°
2026-05-04 22:28 59.38976 18.18669 9918 ft 311 kts 358°
2026-05-04 22:29 59.41095 18.18927 9692 ft 301 kts 357°
2026-05-04 22:29 59.43168 18.19171 9496 ft 295 kts 357°
2026-05-04 22:29 59.45220 18.19407 9387 ft 295 kts 358°
2026-05-04 22:29 59.47239 18.19632 9213 ft 294 kts 358°
2026-05-04 22:30 59.49279 18.19865 8984 ft 293 kts 358°
2026-05-04 22:30 59.51306 18.20098 8736 ft 291 kts 358°
2026-05-04 22:30 59.53327 18.20381 8501 ft 292 kts
2026-05-04 22:30 59.55334 18.21089 8228 ft 292 kts
2026-05-04 22:31 59.57330 18.21822 7954 ft 290 kts
2026-05-04 22:31 59.59315 18.22552 7685 ft 290 kts
2026-05-04 22:31 59.61289 18.23271 7416 ft 288 kts
2026-05-04 22:31 59.63259 18.23993 7139 ft 287 kts
2026-05-04 22:32 59.65221 18.24715 6874 ft 286 kts
2026-05-04 22:32 59.67170 18.25432 6603 ft 284 kts
2026-05-04 22:32 59.69111 18.26141 6332 ft 283 kts
2026-05-04 22:32 59.71040 18.26844 6071 ft 281 kts
2026-05-04 22:33 59.72961 18.27549 5883 ft 280 kts
2026-05-04 22:33 59.74856 18.28241 5752 ft 280 kts
2026-05-04 22:33 59.76780 18.28948 5576 ft 281 kts
2026-05-04 22:33 59.78692 18.29647 5334 ft 279 kts
2026-05-04 22:34 59.80603 18.30197 5072 ft 273 kts 354°
2026-05-04 22:34 59.82416 18.29486 4831 ft 260 kts 330°
2026-05-04 22:34 59.83841 18.27590 4600 ft 237 kts 309°
2026-05-04 22:34 59.84754 18.25048 4361 ft 216 kts 290°
2026-05-04 22:35 59.85171 18.22312 4143 ft 201 kts 274°
2026-05-04 22:35 59.85145 18.19574 3918 ft 196 kts 258°
2026-05-04 22:35 59.84714 18.17003 3706 ft 197 kts 243°
2026-05-04 22:35 59.84018 18.14638 3499 ft 198 kts 241°
2026-05-04 22:36 59.83324 18.12291 3380 ft 197 kts 240°
2026-05-04 22:36 59.82633 18.09954 3264 ft 195 kts 240°
2026-05-04 22:36 59.81953 18.07657 3155 ft 196 kts 240°
2026-05-04 22:36 59.81263 18.05333 3042 ft 193 kts 240°
2026-05-04 22:37 59.80565 18.03149 2932 ft 184 kts 232°
2026-05-04 22:37 59.79567 18.01534 2826 ft 185 kts 212°
2026-05-04 22:37 59.78346 18.00785 2679 ft 189 kts 196°
2026-05-04 22:37 59.77048 18.00315 2504 ft 190 kts 195°
2026-05-04 22:38 59.75742 17.99842 2274 ft 191 kts 194°
2026-05-04 22:38 59.74442 17.99371 2039 ft 189 kts 194°
2026-05-04 22:38 59.74137 17.99259 1975 ft 189 kts 193°
2026-05-04 22:39 59.72949 17.98826 1760 ft 180 kts 193°
2026-05-04 22:39 59.71782 17.98401 1531 ft 162 kts 193°
2026-05-04 22:39 59.70727 17.98018 1308 ft 146 kts 192°
2026-05-04 22:39 59.69763 17.97665 1107 ft 138 kts 192°
2026-05-04 22:40 59.68834 17.97321 934 ft 134 kts 192°
2026-05-04 22:40 59.67914 17.96990 755 ft 134 kts 192°
2026-05-04 22:40 59.66998 17.96656 583 ft 134 kts 192°
2026-05-04 22:40 59.66096 17.96329 406 ft 134 kts 192°
2026-05-04 22:41 59.65180 17.96005 210 ft 134 kts 191°
2026-05-04 22:41 59.64292 17.95672 110 ft 119 kts 189°
2026-05-04 22:41 59.63631 17.95435 118 ft 73 kts 190°
2026-05-04 22:41 59.63338 17.95187 121 ft 25 kts 232°
2026-05-04 22:42 59.63252 17.94951 123 ft 17 kts 294°
2026-05-04 22:42 59.63339 17.94919 120 ft 15 kts 10°
2026-05-04 22:42 59.63455 17.94963 118 ft 19 kts 11°